TimeAST,TemperatureF,Dew PointF,Humidity,Sea Level PressureIn,VisibilityMPH,Wind Direction,Wind SpeedMPH,Gust SpeedMPH,PrecipitationIn,Events,Conditions,WindDirDegrees,DateUTC
12:00 AM,38.1,35.6,91,29.96,-9999.0,SSE,2.3,-,N/A,,Unknown,150,2013-02-16 04:00:00
1:00 AM,34.7,31.6,89,29.95,-9999.0,Calm,Calm,-,N/A,,Unknown,0,2013-02-16 05:00:00
2:00 AM,35,33,90,29.94,,ENE,1.2,,,,,70,2013-02-16 06:00:00
2:00 AM,34.5,33.1,94,29.94,-9999.0,ENE,1.2,-,N/A,,Unknown,70,2013-02-16 06:00:00
3:00 AM,34.7,33.3,94,29.94,-9999.0,Calm,Calm,-,N/A,,Unknown,0,2013-02-16 07:00:00
4:00 AM,34.7,33.3,94,29.93,-9999.0,Calm,Calm,-,N/A,,Unknown,0,2013-02-16 08:00:00
5:00 AM,35,33,91,29.93,,Calm,Calm,,,,,,2013-02-16 09:00:00
5:00 AM,34.5,33.3,95,29.93,-9999.0,Calm,Calm,-,N/A,,Unknown,0,2013-02-16 09:00:00
6:00 AM,34.3,33.1,95,29.92,-9999.0,Calm,Calm,-,N/A,,Unknown,0,2013-02-16 10:00:00
7:00 AM,34.2,33.3,97,29.91,-9999.0,Calm,Calm,-,N/A,,Unknown,0,2013-02-16 11:00:00
8:00 AM,34.7,34.0,97,29.91,-9999.0,West,2.3,-,N/A,,Unknown,280,2013-02-16 12:00:00
9:00 AM,35.6,34.9,97,29.92,-9999.0,West,3.5,-,N/A,,Unknown,270,2013-02-16 13:00:00
10:00 AM,36.3,35.6,97,29.91,-9999.0,SE,2.3,-,N/A,,Unknown,140,2013-02-16 14:00:00
11:00 AM,39,37,92,29.91,,NNE,1.2,,,,,30,2013-02-16 15:00:00
11:00 AM,38.7,37.4,95,29.91,-9999.0,NNE,1.2,-,N/A,,Unknown,30,2013-02-16 15:00:00
12:00 PM,38.7,36.7,93,29.90,-9999.0,West,2.3,-,N/A,,Unknown,280,2013-02-16 16:00:00
1:00 PM,37.9,35.8,92,29.88,-9999.0,NW,5.8,-,N/A,,Unknown,320,2013-02-16 17:00:00
2:00 PM,36,34,88,29.87,,NNW,6.9,,,,,340,2013-02-16 18:00:00
2:00 PM,35.8,33.8,92,29.87,-9999.0,NNW,6.9,-,N/A,,Unknown,340,2013-02-16 18:00:00
3:00 PM,33.4,31.5,92,29.86,-9999.0,NNW,6.9,-,N/A,,Unknown,340,2013-02-16 19:00:00
4:00 PM,33.4,31.3,92,29.86,-9999.0,North,4.6,-,N/A,,Unknown,350,2013-02-16 20:00:00
5:00 PM,32,31,93,29.86,,NW,3.5,,,,,320,2013-02-16 21:00:00
5:00 PM,31.6,30.7,96,29.86,-9999.0,NW,3.5,-,0.02,,Unknown,320,2013-02-16 21:00:00
6:00 PM,31.6,30.4,95,29.85,-9999.0,NNW,5.8,-,0.02,,Unknown,330,2013-02-16 22:00:00
7:00 PM,31.3,29.8,94,29.85,-9999.0,North,3.5,-,N/A,,Unknown,350,2013-02-16 23:00:00
8:00 PM,31,30,93,29.83,,NNW,4.6,,,,,340,2013-02-17 00:00:00
8:00 PM,30.9,29.7,95,29.83,-9999.0,NNW,4.6,-,N/A,,Unknown,340,2013-02-17 00:00:00
9:00 PM,30.2,28.8,94,29.81,-9999.0,NNW,5.8,-,0.02,,Unknown,330,2013-02-17 01:00:00
10:00 PM,30.0,28.8,95,29.79,-9999.0,NW,5.8,-,0.01,,Unknown,320,2013-02-17 02:00:00
11:00 PM,30,29,95,29.78,,NW,3.5,,,,,320,2013-02-17 03:00:00
11:00 PM,30.2,29.1,96,29.78,-9999.0,NW,3.5,-,0.02,,Unknown,320,2013-02-17 03:00:00